Garden City, GA

12:22 PM EST on February 09, 2016 (GMT -0500)
Savannah International

Weather History for KSAV - April, 2014

Change the Weather History Date:

Thursday, April 3, 2014

  Actual Average Record
Temperature  
Mean Temperature 72 °F 63 °F  
Max Temperature 88 °F 75 °F 90 °F (1946)
Min Temperature 56 °F 51 °F 33 °F (1966)
Degree Days  
Heating Degree Days 0 4  
Month to date heating degree days 0 12  
Since 1 July heating degree days 1645 1739  
Cooling Degree Days 7 2  
Month to date cooling degree days 13 6  
Year to date cooling degree days 43 48  
Growing Degree Days 22 (Base 50)    
Moisture  
Dew Point 54 °F    
Average Humidity 55    
Maximum Humidity 81    
Minimum Humidity 28    
Precipitation  
Precipitation 0.00 in 0.11 in 2.31 in (1872)
Month to date precipitation 0.00 0.34  
Year to date precipitation 6.76 10.55  
Sea Level Pressure  
Sea Level Pressure 30.07 in    
Wind  
Wind Speed 8 mph (SSW)    
Max Wind Speed 21 mph    
Max Gust Speed 24 mph    
Visibility 10 miles    
Events      
T = Trace of Precipitation, MM = Missing Value Source: NWS Daily Summary

Daily Weather History Graph

Daily Weather History Graph

Search for Another Location

Airport or City:

Trip Planner

Search our weather history database for the weather conditions in past years. The results will help you decide how hot, cold, wet, or windy it might be!

Date:

Astronomy

Apr. 03, 2014 Rise Set
Actual Time 7:10 AM EDT 7:45 PM EDT
Civil Twilight 6:45 AM EDT 8:10 PM EDT
Nautical Twilight 6:16 AM EDT 8:39 PM EDT
Astronomical Twilight 5:47 AM EDT 9:09 PM EDT
Moon 9:49 AM EDT (4/3) 11:52 PM EDT (4/3)
Length of Visible Light 13h 24m
Length of Day
12h 35m
Waxing Crescent, 17% of the Moon is Illuminated
Apr 3
Waxing Crescent
Apr 7
First Quarter
Apr 15
Full
Apr 22
Last Quarter
Apr 29
New

Hourly Weather History & Observations

Time (EDT) Temp. Heat Index Dew Point Humidity Pressure Visibility Wind Dir Wind Speed Gust Speed Precip Events Conditions
12:53 AM 62.1 °F - 52.0 °F 70% 30.15 in 10.0 mi SW 4.6 mph - N/A   Clear
1:53 AM 60.1 °F - 52.0 °F 75% 30.13 in 10.0 mi Calm Calm - N/A   Clear
2:53 AM 61.0 °F - 54.0 °F 78% 30.11 in 10.0 mi SSW 5.8 mph - N/A   Clear
3:53 AM 61.0 °F - 54.0 °F 78% 30.09 in 10.0 mi SSW 6.9 mph - N/A   Clear
4:53 AM 60.1 °F - 52.0 °F 75% 30.09 in 10.0 mi Calm Calm - N/A   Clear
5:53 AM 57.9 °F - 51.1 °F 78% 30.09 in 10.0 mi Calm Calm - N/A   Clear
6:53 AM 57.0 °F - 51.1 °F 81% 30.09 in 10.0 mi South 3.5 mph - N/A   Scattered Clouds
7:53 AM 59.0 °F - 53.1 °F 81% 30.11 in 10.0 mi Calm Calm - N/A   Mostly Cloudy
8:53 AM 64.0 °F - 54.0 °F 70% 30.12 in 10.0 mi WSW 3.5 mph - N/A   Overcast
9:53 AM 71.1 °F - 54.0 °F 55% 30.14 in 10.0 mi West 5.8 mph - N/A   Mostly Cloudy
10:53 AM 77.0 °F - 52.0 °F 42% 30.14 in 10.0 mi SW 4.6 mph - N/A   Mostly Cloudy
11:53 AM 80.1 °F 79.9 °F 53.1 °F 39% 30.12 in 10.0 mi WSW 11.5 mph - N/A   Mostly Cloudy
12:53 PM 84.0 °F 82.5 °F 53.1 °F 34% 30.10 in 10.0 mi SW 5.8 mph - N/A   Mostly Cloudy
1:53 PM 84.9 °F - 52.0 °F 32% 30.07 in 10.0 mi SSW 6.9 mph - N/A   Mostly Cloudy
2:53 PM 87.1 °F - 50.0 °F 28% 30.04 in 10.0 mi SW 10.4 mph 16.1 mph N/A   Mostly Cloudy
3:53 PM 87.1 °F - 50.0 °F 28% 30.02 in 10.0 mi SSW 12.7 mph 17.3 mph N/A   Scattered Clouds
4:13 PM 84.2 °F 83.5 °F 57.2 °F 40% 30.01 in 10.0 mi SE 15.0 mph - N/A   Scattered Clouds
4:53 PM 84.9 °F 84.2 °F 57.9 °F 40% 30.01 in 10.0 mi SSE 11.5 mph - N/A   Partly Cloudy
5:53 PM 82.0 °F 81.7 °F 57.0 °F 42% 30.00 in 10.0 mi SSE 15.0 mph - N/A   Partly Cloudy
6:53 PM 78.1 °F - 55.0 °F 45% 30.01 in 10.0 mi South 17.3 mph - N/A   Partly Cloudy
7:53 PM 72.0 °F - 57.9 °F 61% 30.02 in 10.0 mi South 11.5 mph - N/A   Scattered Clouds
8:53 PM 69.1 °F - 59.0 °F 70% 30.03 in 10.0 mi South 12.7 mph - N/A   Scattered Clouds
9:53 PM 68.0 °F - 59.0 °F 73% 30.04 in 10.0 mi South 10.4 mph - N/A   Scattered Clouds
11:53 PM 66.9 °F - 60.1 °F 79% 30.04 in 10.0 mi SSW 9.2 mph - N/A   Scattered Clouds